Location: Street
(51.1247°N, 2.7429°W)
Time: 06:23:37
(UTC+00:00)

SR - Pass Details

Date: 30 November 2020
Orbit: 576 x 880 km, 66.7° (Epoch: 16 January)

Event Time Altitude Azimuth Distance (km) Brightness Sun altitude
Rises 22:10:12 0° 300° (WNW) 2,975 - -53.8°
Reaches altitude 10° 22:13:40 10° 328° (NNW) 2,132 - -54.1°
Maximum altitude 22:16:02 13° 357° (N) 1,955 - -54.4°
Drops below altitude 10° 22:18:30 10° 26° (NNE) 2,231 - -54.7°
Sets 22:22:18 0° 53° (NE) 3,234 - -55.1°
